GLET67 YMIG-YWLM

Flight info

Callsign GLET67
Flight time 1h 6m
Altitude 6000
Route MSV DCT KADOM DCT MVI/N0151F070 DCT RUTOS DCT MAKOR DCT NBB DCT WLM
Aircraft H60/L-VD/C

Departure

Time 2026-05-01 10:15
Airport Mittagong Airport (YMIG)

Arrival

Time 2026-05-01 11:22
Airport Newcastle Airport (YWLM)
Time Latitude Longitude Altitude Speed Heading
2026-05-01 10:14 -34.45141 150.49319 1849 ft 0 kts 349°
2026-05-01 10:14 -34.45139 150.49321 1857 ft 1 kts 15°
2026-05-01 10:14 -34.45142 150.49335 1857 ft 2 kts 252°
2026-05-01 10:14 -34.45148 150.49327 1864 ft 25 kts 250°
2026-05-01 10:15 -34.45165 150.49111 1877 ft 21 kts 46°
2026-05-01 10:15 -34.45087 150.49357 1915 ft 32 kts 167°
2026-05-01 10:15 -34.45048 150.49605 1914 ft 5 kts 256°
2026-05-01 10:15 -34.44945 150.49553 1927 ft 52 kts 335°
2026-05-01 10:16 -34.44626 150.49241 2066 ft 61 kts 300°
2026-05-01 10:16 -34.44319 150.48712 2242 ft 103 kts 312°
2026-05-01 10:16 -34.43284 150.47068 2269 ft 133 kts 292°
2026-05-01 10:17 -34.43154 150.45978 2285 ft 137 kts 274°
2026-05-01 10:17 -34.42520 150.43941 2320 ft 141 kts 328°
2026-05-01 10:17 -34.41569 150.43366 2291 ft 166 kts 339°
2026-05-01 10:18 -34.39208 150.42399 1968 ft 169 kts 342°
2026-05-01 10:18 -34.38343 150.42061 2016 ft 110 kts 347°
2026-05-01 10:18 -34.37665 150.41759 2003 ft 99 kts 322°
2026-05-01 10:19 -34.37049 150.41286 2189 ft 120 kts 330°
2026-05-01 10:19 -34.36224 150.40771 2248 ft 141 kts 335°
2026-05-01 10:19 -34.35283 150.40349 2230 ft 148 kts 342°
2026-05-01 10:20 -34.33438 150.39364 1344 ft 141 kts 336°
2026-05-01 10:20 -34.32543 150.39084 1734 ft 153 kts 351°
2026-05-01 10:20 -34.31488 150.38575 1908 ft 174 kts 335°
2026-05-01 10:20 -34.30464 150.37821 1672 ft 168 kts 326°
2026-05-01 10:21 -34.29778 150.37016 1947 ft 121 kts 304°
2026-05-01 10:21 -34.28713 150.35657 2082 ft 111 kts 332°
2026-05-01 10:21 -34.27947 150.35312 1767 ft 128 kts 345°
2026-05-01 10:22 -34.26427 150.35308 1825 ft 93 kts 14°
2026-05-01 10:22 -34.24979 150.35624 2199 ft 130 kts 11°
2026-05-01 10:23 -34.24036 150.35598 1453 ft 151 kts 354°
2026-05-01 10:23 -34.21864 150.35678 1395 ft 159 kts
2026-05-01 10:23 -34.20831 150.36064 1165 ft 162 kts 19°
2026-05-01 10:24 -34.18645 150.37501 1299 ft 200 kts 32°
2026-05-01 10:24 -34.16282 150.38815 1408 ft 181 kts 19°
2026-05-01 10:25 -34.14603 150.40845 1611 ft 179 kts 63°
2026-05-01 10:25 -34.13752 150.43667 1906 ft 170 kts 61°
2026-05-01 10:26 -34.12942 150.44648 2269 ft 177 kts 30°
2026-05-01 10:26 -34.11715 150.44369 1563 ft 192 kts 327°
2026-05-01 10:26 -34.09562 150.43016 1644 ft 178 kts 343°
2026-05-01 10:27 -34.07453 150.42008 459 ft 124 kts 342°
2026-05-01 10:27 -34.05896 150.41763 585 ft 137 kts
2026-05-01 10:28 -34.04781 150.41941 758 ft 179 kts
2026-05-01 10:28 -34.02513 150.42396 675 ft 142 kts 15°
2026-05-01 10:28 -34.01537 150.42854 483 ft 154 kts 26°
2026-05-01 10:29 -33.99879 150.42993 1619 ft 51 kts 358°
2026-05-01 10:29 -33.99295 150.43331 1758 ft 152 kts 10°
2026-05-01 10:30 -33.97097 150.43775 2488 ft 181 kts 17°
2026-05-01 10:30 -33.95793 150.46119 2002 ft 186 kts 90°
2026-05-01 10:31 -33.94741 150.44959 1714 ft 172 kts 298°
2026-05-01 10:31 -33.93430 150.42410 2106 ft 185 kts 304°
2026-05-01 10:32 -33.91860 150.39946 1314 ft 184 kts 317°
2026-05-01 10:32 -33.91268 150.39357 1778 ft 150 kts 322°
2026-05-01 10:32 -33.89991 150.38244 4232 ft 116 kts 326°
2026-05-01 10:33 -33.88129 150.35674 3267 ft 201 kts 320°
2026-05-01 10:33 -33.85973 150.33886 3212 ft 180 kts 345°
2026-05-01 10:34 -33.85144 150.33923 3208 ft 179 kts 11°
2026-05-01 10:34 -33.83905 150.34195 3318 ft 184 kts 11°
2026-05-01 10:34 -33.82642 150.34404 3394 ft 182 kts
2026-05-01 10:35 -33.80134 150.34604 3641 ft 183 kts
2026-05-01 10:35 -33.78866 150.34200 3384 ft 196 kts 340°
2026-05-01 10:35 -33.77622 150.33570 3302 ft 189 kts 339°
2026-05-01 10:35 -33.76437 150.32990 3619 ft 181 kts 340°
2026-05-01 10:36 -33.74014 150.31743 3389 ft 193 kts 337°
2026-05-01 10:36 -33.72946 150.30901 3588 ft 169 kts 323°
2026-05-01 10:36 -33.72116 150.30020 4193 ft 164 kts 328°
2026-05-01 10:37 -33.70985 150.29615 4343 ft 175 kts 351°
2026-05-01 10:37 -33.68508 150.29064 4215 ft 194 kts 343°
2026-05-01 10:37 -33.67310 150.28472 4317 ft 180 kts 338°
2026-05-01 10:38 -33.66071 150.28041 4229 ft 185 kts 347°
2026-05-01 10:38 -33.64959 150.27668 4113 ft 157 kts 347°
2026-05-01 10:38 -33.63851 150.27335 3921 ft 171 kts 350°
2026-05-01 10:38 -33.62653 150.27193 3832 ft 176 kts
2026-05-01 10:39 -33.61461 150.27427 3970 ft 168 kts 14°
2026-05-01 10:39 -33.60395 150.27760 4060 ft 154 kts 18°
2026-05-01 10:39 -33.59378 150.28156 3981 ft 155 kts 21°
2026-05-01 10:39 -33.58367 150.28698 3733 ft 166 kts 27°
2026-05-01 10:40 -33.57397 150.29275 3641 ft 147 kts 30°
2026-05-01 10:40 -33.56539 150.29974 3592 ft 152 kts 38°
2026-05-01 10:40 -33.55681 150.30790 3403 ft 165 kts 42°
2026-05-01 10:40 -33.54747 150.31640 3349 ft 171 kts 37°
2026-05-01 10:41 -33.53811 150.32518 3551 ft 178 kts 38°
2026-05-01 10:41 -33.52813 150.33501 3124 ft 190 kts 40°
2026-05-01 10:41 -33.50985 150.35474 3335 ft 171 kts 51°
2026-05-01 10:42 -33.50355 150.36618 3697 ft 168 kts 57°
2026-05-01 10:42 -33.49673 150.37778 3746 ft 176 kts 50°
2026-05-01 10:42 -33.48802 150.38909 3230 ft 193 kts 43°
2026-05-01 10:42 -33.47845 150.40019 2909 ft 180 kts 45°
2026-05-01 10:43 -33.46981 150.41046 3173 ft 173 kts 45°
2026-05-01 10:43 -33.46060 150.42061 3104 ft 190 kts 43°
2026-05-01 10:43 -33.45050 150.43053 3087 ft 185 kts 40°
2026-05-01 10:43 -33.44058 150.43982 3214 ft 183 kts 40°
2026-05-01 10:44 -33.43115 150.45014 3033 ft 182 kts 46°
2026-05-01 10:44 -33.42255 150.46123 2805 ft 185 kts 49°
2026-05-01 10:44 -33.41416 150.47329 2693 ft 190 kts 51°
2026-05-01 10:44 -33.40613 150.48601 2524 ft 191 kts 54°
2026-05-01 10:45 -33.39851 150.49882 2529 ft 186 kts 56°
2026-05-01 10:45 -33.38851 150.50958 2173 ft 200 kts 39°
2026-05-01 10:45 -33.37991 150.52165 2084 ft 185 kts 60°
2026-05-01 10:45 -33.37417 150.53528 2285 ft 187 kts 63°
2026-05-01 10:46 -33.36873 150.55017 1940 ft 201 kts 67°
2026-05-01 10:46 -33.36158 150.56463 1431 ft 202 kts 55°
2026-05-01 10:46 -33.35244 150.57695 1245 ft 193 kts 41°
2026-05-01 10:46 -33.34198 150.58663 847 ft 200 kts 56°
2026-05-01 10:47 -33.33363 150.58624 913 ft 162 kts 306°
2026-05-01 10:47 -33.32376 150.58463 1030 ft 139 kts 40°
2026-05-01 10:47 -33.31808 150.59551 1612 ft 180 kts 60°
2026-05-01 10:47 -33.31151 150.60941 1365 ft 199 kts 61°
2026-05-01 10:48 -33.30527 150.62400 1242 ft 190 kts 62°
2026-05-01 10:48 -33.29701 150.63617 1385 ft 180 kts 43°
2026-05-01 10:48 -33.28653 150.64531 1548 ft 195 kts 38°
2026-05-01 10:48 -33.27615 150.65526 1638 ft 188 kts 40°
2026-05-01 10:49 -33.26529 150.66421 1715 ft 196 kts 30°
2026-05-01 10:49 -33.25761 150.67691 1397 ft 187 kts 51°
2026-05-01 10:49 -33.24857 150.67508 1679 ft 163 kts 275°
2026-05-01 10:49 -33.25442 150.66672 1871 ft 164 kts 192°
2026-05-01 10:50 -33.26462 150.66944 1794 ft 150 kts 121°
2026-05-01 10:50 -33.26170 150.68069 1609 ft 152 kts 55°
2026-05-01 10:50 -33.25392 150.69095 1656 ft 172 kts 54°
2026-05-01 10:50 -33.24702 150.70371 1572 ft 192 kts 57°
2026-05-01 10:51 -33.24088 150.71729 1494 ft 172 kts 65°
2026-05-01 10:51 -33.23507 150.73006 1472 ft 183 kts 51°
2026-05-01 10:51 -33.23028 150.74337 1435 ft 168 kts 77°
2026-05-01 10:51 -33.22806 150.75693 1501 ft 167 kts 75°
2026-05-01 10:52 -33.22427 150.76956 1741 ft 165 kts 65°
2026-05-01 10:52 -33.22011 150.78272 1696 ft 163 kts 68°
2026-05-01 10:52 -33.21767 150.79638 1439 ft 170 kts 87°
2026-05-01 10:52 -33.21832 150.80973 1468 ft 159 kts 96°
2026-05-01 10:53 -33.21967 150.82303 1429 ft 163 kts 95°
2026-05-01 10:53 -33.21981 150.83638 1303 ft 159 kts 46°
2026-05-01 10:53 -33.21020 150.84321 1057 ft 179 kts 25°
2026-05-01 10:53 -33.19880 150.85113 876 ft 196 kts 37°
2026-05-01 10:54 -33.19030 150.86322 630 ft 184 kts 79°
2026-05-01 10:54 -33.19333 150.87636 819 ft 177 kts 119°
2026-05-01 10:54 -33.19337 150.89109 670 ft 170 kts 71°
2026-05-01 10:54 -33.18595 150.90078 996 ft 151 kts 46°
2026-05-01 10:55 -33.18012 150.91130 1154 ft 159 kts 60°
2026-05-01 10:55 -33.17476 150.92246 1442 ft 154 kts 60°
2026-05-01 10:55 -33.16976 150.93393 1425 ft 159 kts 72°
2026-05-01 10:55 -33.16564 150.94603 1417 ft 162 kts 64°
2026-05-01 10:56 -33.16163 150.95896 1271 ft 168 kts 72°
2026-05-01 10:56 -33.15915 150.97246 1322 ft 166 kts 81°
2026-05-01 10:56 -33.15774 150.98624 1339 ft 168 kts 83°
2026-05-01 10:56 -33.15681 151.00012 1332 ft 168 kts 88°
2026-05-01 10:57 -33.15565 151.01392 1236 ft 170 kts 72°
2026-05-01 10:57 -33.15176 151.02710 1285 ft 165 kts 70°
2026-05-01 10:57 -33.14787 151.03983 1436 ft 161 kts 70°
2026-05-01 10:57 -33.14430 151.05253 1455 ft 164 kts 72°
2026-05-01 10:58 -33.14088 151.06564 1349 ft 162 kts 73°
2026-05-01 10:58 -33.13777 151.07806 1465 ft 156 kts 73°
2026-05-01 10:58 -33.13829 151.09156 1487 ft 176 kts 100°
2026-05-01 10:58 -33.14358 151.10563 1401 ft 194 kts 120°
2026-05-01 10:59 -33.15059 151.11875 1622 ft 184 kts 122°
2026-05-01 10:59 -33.15679 151.13257 1573 ft 193 kts 112°
2026-05-01 10:59 -33.16236 151.14685 1582 ft 187 kts 114°
2026-05-01 10:59 -33.16813 151.16069 1620 ft 179 kts 115°
2026-05-01 11:00 -33.17360 151.17288 1717 ft 163 kts 116°
2026-05-01 11:00 -33.17933 151.18506 1713 ft 167 kts 111°
2026-05-01 11:00 -33.18282 151.19784 1758 ft 150 kts 131°
2026-05-01 11:00 -33.18565 151.21070 1834 ft 174 kts 105°
2026-05-01 11:01 -33.18681 151.22474 1858 ft 165 kts 98°
2026-05-01 11:01 -33.18873 151.23841 1884 ft 164 kts 101°
2026-05-01 11:01 -33.19120 151.25154 1843 ft 168 kts 103°
2026-05-01 11:01 -33.19407 151.26516 1773 ft 171 kts 110°
2026-05-01 11:02 -33.19663 151.27897 1744 ft 169 kts 102°
2026-05-01 11:02 -33.19859 151.29282 1725 ft 165 kts 102°
2026-05-01 11:02 -33.20085 151.30617 1701 ft 162 kts 101°
2026-05-01 11:02 -33.20274 151.31936 1764 ft 163 kts 97°
2026-05-01 11:03 -33.20474 151.33246 1776 ft 154 kts 99°
2026-05-01 11:03 -33.20736 151.34506 1693 ft 160 kts 104°
2026-05-01 11:03 -33.21089 151.35724 1890 ft 151 kts 107°
2026-05-01 11:03 -33.21513 151.36880 1648 ft 151 kts 113°
2026-05-01 11:04 -33.21993 151.37968 2007 ft 152 kts 114°
2026-05-01 11:04 -33.22621 151.39238 1812 ft 184 kts 117°
2026-05-01 11:04 -33.23352 151.40467 2018 ft 181 kts 124°
2026-05-01 11:04 -33.24158 151.41578 1960 ft 171 kts 129°
2026-05-01 11:05 -33.24967 151.42569 2117 ft 161 kts 133°
2026-05-01 11:05 -33.25777 151.43415 2056 ft 155 kts 137°
2026-05-01 11:05 -33.26643 151.44303 2078 ft 177 kts 130°
2026-05-01 11:05 -33.27195 151.45683 1859 ft 185 kts 98°
2026-05-01 11:06 -33.26952 151.47117 1899 ft 177 kts 66°
2026-05-01 11:06 -33.26384 151.48344 1911 ft 167 kts 59°
2026-05-01 11:06 -33.25805 151.49646 1961 ft 180 kts 63°
2026-05-01 11:07 -33.24876 151.52231 2002 ft 191 kts 72°
2026-05-01 11:07 -33.24454 151.53771 1439 ft 195 kts 72°
2026-05-01 11:07 -33.24059 151.55309 1148 ft 192 kts 74°
2026-05-01 11:07 -33.23767 151.56854 980 ft 190 kts 78°
2026-05-01 11:08 -33.23434 151.58390 826 ft 188 kts 74°
2026-05-01 11:08 -33.23115 151.59754 474 ft 164 kts 81°
2026-05-01 11:08 -33.22932 151.60120 96 ft 5 kts 298°
2026-05-01 11:09 -33.22930 151.60115 93 ft 3 kts 298°
2026-05-01 11:09 -33.22709 151.60120 240 ft 83 kts 37°
2026-05-01 11:09 -33.21913 151.60693 256 ft 164 kts 31°
2026-05-01 11:10 -33.20158 151.62293 123 ft 146 kts 36°
2026-05-01 11:10 -33.19095 151.62829 291 ft 181 kts 21°
2026-05-01 11:10 -33.18438 151.63936 221 ft 177 kts 79°
2026-05-01 11:10 -33.17787 151.64920 148 ft 160 kts 14°
2026-05-01 11:11 -33.16706 151.64421 237 ft 168 kts 339°
2026-05-01 11:11 -33.15647 151.64254 269 ft 152 kts
2026-05-01 11:11 -33.14602 151.64707 374 ft 174 kts 28°
2026-05-01 11:11 -33.13435 151.65378 89 ft 195 kts 27°
2026-05-01 11:12 -33.12204 151.65798 331 ft 180 kts 10°
2026-05-01 11:12 -33.11201 151.65276 389 ft 143 kts 263°
2026-05-01 11:12 -33.10721 151.65166 71 ft 140 kts 53°
2026-05-01 11:12 -33.09872 151.65929 464 ft 168 kts 32°
2026-05-01 11:13 -33.08823 151.66507 423 ft 162 kts 19°
2026-05-01 11:13 -33.07690 151.66519 544 ft 163 kts
2026-05-01 11:13 -33.06650 151.66589 548 ft 139 kts 17°
2026-05-01 11:13 -33.05735 151.67000 610 ft 139 kts 29°
2026-05-01 11:14 -33.05029 151.67648 763 ft 124 kts 42°
2026-05-01 11:14 -33.04417 151.68307 880 ft 116 kts 47°
2026-05-01 11:14 -33.03803 151.69139 883 ft 151 kts 50°
2026-05-01 11:14 -33.03182 151.70118 881 ft 142 kts 53°
2026-05-01 11:15 -33.02634 151.71086 1001 ft 164 kts 54°
2026-05-01 11:15 -33.01952 151.72352 635 ft 179 kts 56°
2026-05-01 11:15 -33.00858 151.73033 193 ft 192 kts 12°
2026-05-01 11:15 -32.99801 151.73143 88 ft 114 kts 353°
2026-05-01 11:16 -32.99167 151.73059 144 ft 87 kts 17°
2026-05-01 11:16 -32.98637 151.73621 644 ft 127 kts 52°
2026-05-01 11:16 -32.97985 151.74444 1184 ft 144 kts 43°
2026-05-01 11:16 -32.97221 151.75191 1006 ft 140 kts 39°
2026-05-01 11:17 -32.96501 151.75868 1079 ft 125 kts 39°
2026-05-01 11:17 -32.95848 151.76481 1319 ft 115 kts 39°
2026-05-01 11:17 -32.95214 151.77078 1082 ft 123 kts 38°
2026-05-01 11:17 -32.94508 151.77736 999 ft 123 kts 39°
2026-05-01 11:18 -32.93850 151.78337 1156 ft 120 kts 40°
2026-05-01 11:18 -32.93153 151.78925 1498 ft 129 kts 34°
2026-05-01 11:18 -32.92283 151.79356 1348 ft 143 kts 23°
2026-05-01 11:18 -32.91424 151.79952 1038 ft 134 kts 41°
2026-05-01 11:19 -32.90851 151.80735 1404 ft 125 kts 53°
2026-05-01 11:19 -32.90212 151.81758 1694 ft 181 kts 54°
2026-05-01 11:19 -32.89366 151.82961 1175 ft 193 kts 46°
2026-05-01 11:19 -32.88391 151.84079 740 ft 193 kts 45°
2026-05-01 11:20 -32.87462 151.85168 924 ft 185 kts 45°
2026-05-01 11:20 -32.86538 151.86219 1144 ft 182 kts 44°
2026-05-01 11:20 -32.85644 151.87227 922 ft 173 kts 44°
2026-05-01 11:20 -32.84659 151.87959 720 ft 158 kts 18°
2026-05-01 11:21 -32.83572 151.87788 630 ft 155 kts 346°
2026-05-01 11:21 -32.82634 151.87374 659 ft 136 kts 334°
2026-05-01 11:21 -32.81918 151.86700 635 ft 128 kts 319°
2026-05-01 11:21 -32.81311 151.85900 535 ft 137 kts 314°
2026-05-01 11:22 -32.80915 151.85345 344 ft 126 kts 312°
2026-05-01 11:22 -32.80316 151.84506 88 ft 66 kts 313°
2026-05-01 11:22 -32.80103 151.84217 45 ft 30 kts 314°
2026-05-01 11:22 -32.79979 151.84051 47 ft 23 kts 315°
2026-05-01 11:23 -32.79898 151.83940 45 ft 13 kts 317°
2026-05-01 11:23 -32.79839 151.83937 44 ft 9 kts 41°
2026-05-01 11:23 -32.79797 151.83979 40 ft 12 kts 46°
2026-05-01 11:23 -32.79721 151.84087 28 ft 10 kts 52°
2026-05-01 11:24 -32.79701 151.84128 27 ft 8 kts 86°
2026-05-01 11:24 -32.79722 151.84169 29 ft 4 kts 142°
2026-05-01 11:24 -32.79796 151.84227 29 ft 7 kts 151°
2026-05-01 11:25 -32.79826 151.84256 27 ft 6 kts 86°
2026-05-01 11:25 -32.79816 151.84279 25 ft 0 kts 56°